Simultaneous Nadir Overpasses (SNOs) Predictions

Prediction of SNOs between NOAA-15 and METOP-C Satellite Orbit:

Table of predicted SNOs for the next 14.0 days since TLE Epoch: 12/18/2024
Index Date (NOAA-15) Time (NOAA-15) Lat,Lon (NOAA-15) SZA (NOAA-15 ) Date (METOP-C) Time (METOP-C) Lat,Lon (METOP-C) SZA (METOP-C ) Distance(km) Time Diff (sec)
1 12/31/2024 22:00:38 -81.03, 67.39 74.32 12/31/2024 21:59:24 -81.02, 67.41 74.36 1.14 74
2 12/31/2024 22:51:08 81.02,-124.99 105.69 12/31/2024 22:50:04 81.03,-125.03 105.67 1.64 64
3 12/31/2024 23:41:37 -81.03, 42.08 74.33 12/31/2024 23:40:45 -81.03, 42.27 74.34 3.26 52
4 01/01/2025 00:32:08 81.04,-150.67 105.66 01/01/2025 00:31:26 81.02,-150.55 105.64 2.75 42
5 01/01/2025 01:22:36 -81.04, 16.77 74.34 01/01/2025 01:22:07 -81.02, 16.75 74.37 1.72 29



Historial Predications of SNOs between NOAA-15 and METOP-C
